Regional Weather Roundup
Issued by NWS

Home | Current Version | Previous Version | Graphics & Text | Print | Product List | Glossary On
Versions: 1 2 3 4 5 6 7 8 9 10 11 12 13 14 15 16 17 18 19 20 21 22 23 24 25 26 27 28 29 30 31 32 33 34 35 36 37 38 39 40 41 42 43 44 45 46 47 48 49 50
000
ASUS43 KLSX 190107
RWRMO

WEATHER SUMMARY FOR MISSOURI
NATIONAL WEATHER SERVICE SPRINGFIELD MO
700 PM CST SUN FEB 18 2018

NOTE: "FAIR" INDICATES FEW OR NO CLOUDS BELOW 12,000 FEET WITH NO
       SIGNIFICANT WEATHER AND/OR OBSTRUCTIONS TO VISIBILITY.
       CURRENT SKY AND/OR WEATHER CONDITIONS ARE NOT AVAILABLE FOR
       CHILLICOTHE AND FARMINGTON.

MOZ001>031-035>038-043-044-053-054-190200-
...NORTHERN AND WESTERN MISSOURI...

CITY           SKY/WX    TMP DP  RH WIND       PRES   REMARKS
KANSAS CTY INT CLOUDY    55  36  48 S21       29.69R
KANSAS C DTWN  CLOUDY    58  37  45 S20       29.71R
LEE`S SUMMIT   CLOUDY    56  35  45 S22G28    29.71S
ST JOSEPH      CLOUDY    54  37  52 S20       29.67S
CHILLICOTHE      N/A     52  31  44 S13G23    29.71F
KIRKSVILLE     MOCLDY    47  31  53 SE14      29.73F

$$
MOZ066>068-077>081-088>096-101>105-190200-
...SOUTHWEST MISSOURI...

CITY           SKY/WX    TMP DP  RH WIND       PRES   REMARKS
SPRINGFIELD    CLOUDY    51  40  65 S21G30    29.84F
JOPLIN         CLOUDY    54  45  71 S16       29.81F
BRANSON        CLOUDY    48  43  81 SE15G23   29.93F

$$
MOZ032>034-039>042-045>050-055>058-069>072-190200-
...CENTRAL MISSOURI...

CITY           SKY/WX    TMP DP  RH WIND       PRES   REMARKS
COLUMBIA       PTCLDY    50  30  46 S18G29    29.81F
JEFFERSON CITY PTCLDY    51  31  46 SE12      29.85F
ROLLA          CLOUDY    47  33  58 S17       29.88F
SEDALIA        MOCLDY    53  35  50 S18       29.78F
WHITEMAN AFB   CLOUDY    52  33  48 S24G32    29.71S
WARRENSBURG    CLOUDY    52  32  46 S16G26    29.75R
OSAGE BEACH    CLOUDY    50  35  56 S13G21    29.85F

$$
MOZ051-052-059>065-190200-
...EAST CENTRAL MISSOURI...

CITY           SKY/WX    TMP DP  RH WIND       PRES   REMARKS
ST LOUIS INTL  CLOUDY    49  34  56 S22       29.94F
SPIRIT OF STL  CLOUDY    51  30  44 S7        29.93R
ST CHARLES     CLOUDY    47  33  58 SE17      29.94S

$$
MOZ072>076-082>087-097>100-106>115-190200-
...SOUTH CENTRAL AND SOUTHEAST MISSOURI...

CITY           SKY/WX    TMP DP  RH WIND       PRES   REMARKS
CAPE GIRARDEAU CLOUDY    50  38  63 SE5       30.05S
FARMINGTON     CLOUDY    47  36  65 S17G23    29.98F
POPLAR BLUFF   CLOUDY    50  41  71 SE8       30.02F
WEST PLAINS    CLOUDY    48  38  68 S12G22    29.98S

$$



USA.gov is the U.S. government's official web portal to all federal, state and local government web resources and services.